022  
ASUS42 KTBW 231610  
RWRFL  
FLORIDA REGIONAL WEATHER ROUNDUP  
NATIONAL WEATHER SERVICE TAMPA BAY RUSKIN FL  
1200 PM EDT WED APR 23 2014  
 
NOTE: "FAIR" INDICATES FEW OR NO CLOUDS BELOW 12,000 FEET WITH NO  
SIGNIFICANT WEATHER AND/OR S TO VISIBILITY
.  
 
 
FLZ001>010-012>015-112-114-115-231700-  
PANHANDLE FLORIDA  
 
CITY SKY/WX TMP DP RH WIND PRES REMARKS
 
PENSACOLA SUNNY 78 61 55 N6 29.97S  
PENSACOLA NAS MOSUNNY 77 62 59 N7 29.96F  
MILTON NAS MOSUNNY 77 61 57 NW5 29.97F  
CRESTVIEW MOSUNNY 81 62 52 N6 29.98F  
DUKE FIELD MOSUNNY 77 60 56 VRB5 29.97F  
VALPARAISO MOSUNNY 79 65 62 NE6 29.97S  
MARY ESTHER MOSUNNY 77 59 52 E6 29.95F  
PANAMA CITY FAIR 77 61 57 NW5 29.95F  
TYNDALL AFB SUNNY 75 71 85 NE3 29.97S  
APALACHICOLA CLOUDY 74 64 71 VRB3 29.97S  
 
STATION/POSITION SKY/WX TEMP WIND PRES WAVE SWELL
 
AIR SEA DIR/SP/G HT/PER HT/PER  
(F) (DEG/KT/KT) (MB) (FT/S) (FT/S)  
30.1N 87.6W 68 69 40/ 6/ 6 1015.4R 1  
29.2N 88.2W 68 69 20/ 8/ 8 1015.6R  
28.8N 86.0W 69 69 320/ 6/ 6 1015.8R 1/ 4  
PANAMA CITY BEAC 68 66 220/ 6/ 7 1014.4F  
CAPE SAN BLAS NOT AVBL  
TOWER C 68 290/ 7/ 7 1014.9F  
28.5N 84.5W 69 70 320/ 2/ 4 1015.4R 1/ 4  
 

 
FLZ011-016>038-118-127-128-134-139-239-231700-  
NORTH FLORIDA  
 
CITY SKY/WX TMP DP RH WIND PRES REMARKS
 
MARIANNA PTSUNNY 76 62 62 CALM 29.96S  
TALLAHASSEE MOSUNNY 79 61 53 NW6 29.96S  
PERRY SUNNY 75 63 64 CALM 29.97S  
CROSS CITY N/A 78 64 61 CALM 29.95S  
GAINESVILLE MOSUNNY 77 63 61 VRB6 29.95S  
MAYPORT NAS MOSUNNY 80 61 52 W8 29.93S  
JACKSONVILLE MOSUNNY 79 62 56 W14 29.93S  
JAX NAS MOSUNNY 80 60 50 NW7 29.94S  
JAX CRAIG SUNNY 81 63 54 N9 29.93S  
JAX CECIL SUNNY 79 63 57 NW9 29.94S  
FERNANDINA BEA FAIR 81 61 50 NW13G20 29.91F  
ST AUGUSTINE MOSUNNY 78 62 57 NW9 29.94S  
 
STATION/POSITION SKY/WX TEMP WIND PRES WAVE SWELL
 
AIR SEA DIR/SP/G HT/PER HT/PER  
(F) (DEG/KT/KT) (MB) (FT/S) (FT/S)  
SHELL POINT 69 340/ 4/ 7 1013.5R  
KEATON BEACH 66 260/ 6/ 7 1014.9F  
CEDAR KEY 69 270/ 5/ 9 1015.3R  
FERNANDINA 75 68 320/ 10/ 15 1012.8F  
30.7N 81.3W 67 N/A 2/ 8  
MAYPORT 75 69 310/ 8/ 12 N/A  
31.4N 80.9W 67 66 260/ 4/ 4 1013.1R 2/ 8 2/ 8  
ST AUGUSTINE 70 110/ 7/ 7 1014.3S  
 

 
FLZ040-043>046-052-053-057-058-063-144-231700-  
INTERIOR CENTRAL FLORIDA  
 
CITY SKY/WX TMP DP RH WIND PRES REMARKS
 
OCALA SUNNY 77 61 57 NW6 29.96F  
THE VILLAGES N/A 77 63 61 CALM 29.96S  
LEESBURG SUNNY 76 62 62 W6 29.97S  
SANFORD SUNNY 77 63 61 VRB6 29.95F  
ORLANDO EXEC SUNNY 76 62 62 VRB6 29.96S  
ORLANDO INTL MOSUNNY 78 60 53 VRB5 29.96S  
KISSIMMEE MOSUNNY 75 64 69 CALM 29.96F  
WINTER HAVEN SUNNY 77 61 57 NW7 29.98F  
LAKELAND MOSUNNY 75 61 60 W7 29.98S  
BARTOW MOSUNNY 73 59 60 W7 29.98F  
OKEECHOBEE SUNNY 73 61 64 NE5 29.97F  
 

 
FLZ041-047-054-059-064-141-147-231700-  
EAST CENTRAL FLORIDA  
 
CITY SKY/WX TMP DP RH WIND PRES REMARKS
 
ORMOND BEACH SUNNY 77 64 65 W7 29.94F  
DAYTONA BEACH MOSUNNY 79 64 60 CALM 29.94F  
DELAND SUNNY 77 63 61 W6 29.95F  
NEW SMYRNA BEA SUNNY 79 64 61 SW3 29.95F  
JFK SPACE CTR SUNNY 78 62 58 SW7 29.94F  
TITUSVILLE MOSUNNY 77 63 61 VRB6 29.95F  
CAPE CANAVERAL SUNNY 77 62 59 VRB3 29.94F  
PATRICK AFB SUNNY 76 61 60 NW2 29.95F  
MELBOURNE MOSUNNY 78 60 53 W5 29.95F  
VERO BEACH MOSUNNY 76 62 62 W8 29.96S  
FT PIERCE MOSUNNY 77 61 57 W9 29.96S  
STUART MOSUNNY 75 64 69 NW6 29.97F  
 
STATION/POSITION SKY/WX TEMP WIND PRES WAVE SWELL
 
AIR SEA DIR/SP/G HT/PER HT/PER  
(F) (DEG/KT/KT) (MB) (FT/S) (FT/S)  
28.5N 80.2W 68 79 300/ 10/ 12 1014.6R  
28.9N 78.5W 74 76 280/ 10/ 12 1013.7F 4/ 8 3/ 8  
TRIDENT PIER 76 74 320/ 3/ 5 1013.7F  
28.4N 80.5W 73 N/A 1/ 8  
27.6N 80.2W 73 N/A 3/ 9  
 

 
FLZ050-056-061-142-242-148-248-149-249-151-251-155-255-  
160-260-231700-  
WEST CENTRAL FLORIDA  
 
CITY SKY/WX TMP DP RH WIND PRES REMARKS
 
CRYSTAL RIVER FAIR 73 61 64 W8 29.97S  
INVERNESS FAIR 77 59 53 CALM 29.96F  
BROOKSVILLE MOSUNNY 75 61 61 MISG 29.98S  
CLEARWATER PTSUNNY 75 62 64 NW9 29.98S  
TAMPA INTL MOSUNNY 74 63 68 W13G18 29.98S  
TAMPA EXEC PTSUNNY 77 61 57 NW3 29.98F  
PLANT CITY MOSUNNY 77 61 57 SW5 29.99F  
MACDILL AFB MOSUNNY 78 66 66 N9 29.98S  
PETER O KNIGHT MOSUNNY 77 63 61 W8 29.98S  
ST PETERSBURG PTSUNNY 74 63 68 NW7 29.96S  
SARASOTA SUNNY 75 63 66 W12 29.97S  
VENICE PTSUNNY 73 64 73 W9 29.99F  
 
STATION/POSITION SKY/WX TEMP WIND PRES WAVE SWELL
 
AIR SEA DIR/SP/G HT/PER HT/PER  
(F) (DEG/KT/KT) (MB) (FT/S) (FT/S)  
CEDAR KEY 69 270/ 5/ 9 1015.3R  
28.5N 84.5W 69 70 320/ 2/ 4 1015.4R 1/ 4  
27.3N 84.3W 73 N/A 1/ 4  
CLEARWATER BEACH 70 72 330/ 5/ 7 1014.9S  
MIDDLE TAMPA BAY 71 290/ 6/ 8 1015.5S  
VENICE 71 74 280/ 7/ 8 1014.8S  
 

 
FLZ066-069-070-075>078-162-262-165-265-231700-  
SOUTHWEST FLORIDA AND KEYS  
 
CITY SKY/WX TMP DP RH WIND PRES REMARKS
 
PUNTA GORDA MOSUNNY 79 63 57 W9 29.99S  
FT MYERS SUNNY 78 61 55 MISG 29.97F  
SOUTHWEST INTL MOSUNNY 77 60 55 W7 29.97F  
NAPLES PTSUNNY 75 62 64 W10 29.99R  
MARATHON SUNNY 80 64 58 VRB6 29.98F  
KEY WEST NAS MOSUNNY 78 63 59 N7 29.99S  
KEY WEST INTL SUNNY 78 64 61 N9 29.99S  
 
STATION/POSITION SKY/WX TEMP WIND PRES WAVE SWELL
 
AIR SEA DIR/SP/G HT/PER HT/PER  
(F) (DEG/KT/KT) (MB) (FT/S) (FT/S)  
VENICE 71 74 280/ 7/ 8 1014.8S  
NAPLES 72 77 330/ 8/ 9 1015.7F  
26.0N 85.6W 76 81 10/ 8/ 10 1015.5 1/ 9  
DRY TORTUGAS NOT AVBL  
NW FL BAY 74 340/ 3/ 4 1015.6R  
SOMBRERO KEY 74 350/ 2/ 3 1015.9F  
LONG KEY 73 79 350/ 3/ 5 1016.0F  
MOLASSES REEF 73 80 310/ 7/ 8 1015.0F  
 

 
FLZ067-068-071>074-168-172>174-231700-  
SOUTHEAST FLORIDA  
 
CITY SKY/WX TMP DP RH WIND PRES REMARKS
 
W PALM BEACH MOSUNNY 79 62 56 CALM 29.95S  
FT LAUDER-EXEC SUNNY 79 62 56 W8 29.96F  
FT LAUDERDALE MOSUNNY 79 62 56 VRB6 29.95F  
POMPANO BEACH SUNNY 80 62 54 W9 29.96F  
PEMBROKE PINES SUNNY 78 62 57 VRB5 29.97F  
OPA LOCKA SUNNY 78 59 51 W7 29.97F  
MIAMI MOSUNNY 79 59 50 N8 29.97F  
WEST KENDALL SUNNY 78 61 55 NW7 29.97F  
HOMESTEAD MOSUNNY 79 64 59 W8 29.97F  
 
STATION/POSITION SKY/WX TEMP WIND PRES WAVE SWELL
 
AIR SEA DIR/SP/G HT/PER HT/PER  
(F) (DEG/KT/KT) (MB) (FT/S) (FT/S)  
PORT EVERGLADES 77 270/ 3/ 6 1014.6  
VIRGINIA KEY 74 78 240/ 4/ 6 1014.8F  
LAKE WORTH 76 79 260/ 3/ 5 1014.1S  
FOWEY ROCKS 74 78 260/ 4/ 5 1015.0F  
SETTLEMENT POINT 76 300/ 7/ 9 1014.8S  
 

 
 
CLICK HERE TO GO TO PREVIOUS BULLETINS.

The Nexlab FL Page Main Text Page